Погода в Кривояре

Россия / Саратовская область     50°51′51″N   46°29′33″E
темп.,
°C
ветер,
м/с
пор.,
м/с
влажн.,
%
обл.,
%
осадки,
мм/ч
давл.,
гПа
погр.,
м
11 мая, вт
вт1101:00+8ю3593100 7.0 1015359
04:00+8юв488789 7.5 1017281
07:00+10юв6858100 0.0 1020516
10:00+12юв795845 0.0 10221478
13:00+15ююв684816 0.0 10231747
16:00+16ююв4546100 0.0 10241700
19:00+16юв12497 0.0 10241096
22:00+12с3360100 0.0 102423
12 мая, ср
ср1201:00+10ссв486771 0.0 1024135
04:00+12св5982100 0.0 1022363
07:00+11ссв51097100 1.6 1020405
10:00+14в498969 1.9 1020459
13:00+19юв576984 0.2 10201150
16:00+20ююв4764100 0.7 10201300
19:00+20в476938 0.1 1020307
22:00+15всв4118445 0.1 1020218
13 мая, чт
чт1301:00+18в7146579 0.0 1018456
04:00+15вюв5128198 2.1 1018361
07:00+15в41081100 0.8 1018245
10:00+21юв81262100 0.8 1018880
13:00+23юв81151100 0.0 10181343
16:00+26ююв811401 0.1 10172092
19:00+24ю235672 0.0 101754
22:00+20вюв34694 0.1 101844
14 мая, пт
пт1401:00+18юв49715 0.1 1018138
04:00+17юв46666 0.1 101978
07:00+17вюв410635 0.0 1020213
10:00+23ююв710385 0.0 1020589
13:00+28ююв811295 0.0 10201253
16:00+29ююв71028100 0.0 10191652
19:00+25юв51043100 0.0 1019223
22:00+20вюв513508 0.0 1019184
15 мая, сб
сб1501:00+18юв513451 0.0 1019186
04:00+17юв48390 0.0 1019112
07:00+17юв410480 0.0 1019181
10:00+25юв712315 0.0 1019615
13:00+29ююв810265 0.0 10181751
16:00+30ююв710255 0.0 10172798
19:00+26юв510395 0.0 1016247
22:00+21юв512544 0.0 1016184